Location: St. Louis
(38.6270°N, 90.1994°W)
Time: 05:09:29
(UTC-05:00)

RS-15 - Pass Details

Date: 31 January 2022
Orbit: 1881 x 2163 km, 64.8° (Epoch: 20 May)

Event Time Altitude Azimuth Distance (km) Brightness Sun altitude
Exits shadow 03:55:26 12° 192° (SSW) 4,412 9.7 -37.6°
Drops below altitude 10° 03:56:05 10° 190° (S) 4,579 9.8 -37.5°
Sets 03:59:45 0° 183° (S) 5,545 10.3 -36.8°
